Weather History for Platteville, WI

Change the Weather History Date:

Friday, October 25, 2013

  Actual Average (KDBQ) Record (KDBQ)
Temperature  
Mean Temperature 38 °F 47 °F  
Max Temperature 52 °F 56 °F 78 °F (1989)
Min Temperature 25 °F 37 °F 15 °F (1887)
Degree Days  
Heating Degree Days 26 18  
Month to date heating degree days 353  
Since 1 July heating degree days 531  
Cooling Degree Days 0 0  
Month to date cooling degree days 4  
Year to date cooling degree days 641  
Moisture  
Dew Point 26 °F    
Average Humidity 61    
Maximum Humidity 90    
Minimum Humidity 34    
Precipitation  
Precipitation 0.00 in 0.09 in 2.87 in (1939)
Month to date precipitation 2.14  
Year to date precipitation 31.58  
Snow  
Snow 0.00 in 0.00 in - ()
Month to date snowfall 0.0  
Since 1 July snowfall 0.0  
Since 1 September snowfall 0.0  
Snow Depth -    
Sea Level Pressure  
Sea Level Pressure 30.23 in    
Wind  
Wind Speed 8 mph (SW)    
Max Wind Speed 23 mph    
Max Gust Speed 32 mph    
Visibility 10 miles    
Events      
T = Trace of Precipitation, MM = Missing Value Source: NWS Daily Summary

Daily Weather History Graph

Daily Weather History Graph

Search for Another Location

Airport:

Trip Planner

Search our weather history database for the weather conditions in past years. The results will help you decide how hot, cold, wet, or windy it might be!

Date:

Astronomy

Oct. 25, 2013 Rise Set
Actual Time 7:27 AM CDT 6:03 PM CDT
Civil Twilight 6:58 AM CDT 6:32 PM CDT
Nautical Twilight 6:25 AM CDT 7:05 PM CDT
Astronomical Twilight 5:52 AM CDT 7:38 PM CDT
Moon 11:21 PM CDT (10/25) 1:10 PM CDT (10/25)
Length of Visible Light 11h 34m
Length of Day
10h 36m
Waning Gibbous, 62% of the Moon is Illuminated
Oct 25
Waning Gibbous
Oct 26
Last Quarter
Nov 3
New
Nov 9
First Quarter
Nov 17
Full

Hourly Weather History & Observations

Time (CDT) Temp. Windchill Dew Point Humidity Pressure Visibility Wind Dir Wind Speed Gust Speed Precip Events Conditions
12:15 AM 27.5 °F 21.1 °F 21.4 °F 78% 30.32 in 10.0 mi WSW 5.8 mph - N/A   Clear
12:35 AM 27.9 °F 21.5 °F 21.7 °F 78% 30.33 in 10.0 mi West 5.8 mph - N/A   Clear
12:55 AM 27.5 °F 21.1 °F 22.1 °F 80% 30.33 in 10.0 mi West 5.8 mph - N/A   Clear
1:15 AM 27.5 °F 22.2 °F 22.1 °F 80% 30.33 in 10.0 mi WSW 4.6 mph - N/A   Clear
1:35 AM 27.1 °F 23.2 °F 22.6 °F 83% 30.34 in 10.0 mi West 3.5 mph - N/A   Clear
1:55 AM 27.1 °F 21.8 °F 23.0 °F 84% 30.35 in 10.0 mi WSW 4.6 mph - N/A   Clear
2:15 AM 27.1 °F 21.8 °F 23.0 °F 84% 30.35 in 10.0 mi West 4.6 mph - N/A   Clear
2:35 AM 26.2 °F 20.7 °F 22.3 °F 85% 30.35 in 10.0 mi West 4.6 mph - N/A   Clear
2:55 AM 25.3 °F - 21.9 °F 87% 30.34 in 10.0 mi Calm Calm - N/A   Clear
3:15 AM 27.1 °F - 23.7 °F 87% 30.35 in 10.0 mi Calm Calm - N/A   Clear
3:35 AM 27.1 °F - 23.2 °F 85% 30.35 in 10.0 mi Calm Calm - N/A   Clear
3:55 AM 25.7 °F 21.5 °F 22.3 °F 87% 30.35 in 10.0 mi WSW 3.5 mph - N/A   Scattered Clouds
4:15 AM 26.1 °F - 22.5 °F 86% 30.35 in 10.0 mi Calm Calm - N/A   Scattered Clouds
4:35 AM 27.1 °F 23.2 °F 23.7 °F 87% 30.36 in 10.0 mi West 3.5 mph - N/A   Scattered Clouds
4:55 AM 27.9 °F - 24.4 °F 87% 30.36 in 10.0 mi Calm Calm - N/A   Overcast
5:15 AM 28.6 °F - 25.2 °F 87% 30.36 in 10.0 mi Calm Calm - N/A   Overcast
5:35 AM 29.3 °F - 26.1 °F 88% 30.36 in 10.0 mi Calm Calm - N/A   Overcast
5:55 AM 29.1 °F - 26.1 °F 88% 30.35 in 10.0 mi Calm Calm - N/A   Overcast
6:15 AM 28.4 °F - 25.2 °F 88% 30.35 in 10.0 mi Calm Calm - N/A   Overcast
6:35 AM 27.5 °F 23.6 °F 24.3 °F 88% 30.36 in 10.0 mi SSE 3.5 mph - N/A   Mostly Cloudy
6:55 AM 26.6 °F 21.2 °F 23.9 °F 90% 30.36 in 10.0 mi SSE 4.6 mph - N/A   Mostly Cloudy
7:15 AM 27.7 °F 23.8 °F 24.8 °F 89% 30.35 in 10.0 mi SSE 3.5 mph - N/A   Overcast
7:35 AM 28.4 °F 24.6 °F 25.3 °F 88% 30.36 in 10.0 mi SSE 3.5 mph - N/A   Overcast
7:55 AM 29.3 °F 25.6 °F 25.7 °F 86% 30.36 in 10.0 mi South 3.5 mph - N/A   Overcast
8:15 AM 29.8 °F 26.3 °F 26.1 °F 86% 30.36 in 10.0 mi South 3.5 mph - N/A   Overcast
8:35 AM 31.8 °F 28.5 °F 27.5 °F 84% 30.36 in 10.0 mi South 3.5 mph - N/A   Mostly Cloudy
8:55 AM 32.9 °F 28.5 °F 27.9 °F 82% 30.36 in 10.0 mi SSW 4.6 mph - N/A   Scattered Clouds
9:15 AM 34.2 °F 29.0 °F 28.4 °F 79% 30.36 in 10.0 mi SSW 5.8 mph - N/A   Clear
9:35 AM 36.5 °F 31.0 °F 29.5 °F 76% 30.36 in 10.0 mi SW 6.9 mph - N/A   Clear
9:55 AM 38.1 °F 32.9 °F 29.3 °F 71% 30.36 in 10.0 mi WSW 6.9 mph - N/A   Clear
10:15 AM 39.6 °F 35.4 °F 29.7 °F 68% 30.36 in 10.0 mi WSW 5.8 mph - N/A   Clear
10:35 AM 41.2 °F 36.6 °F 29.7 °F 64% 30.35 in 10.0 mi WSW 6.9 mph - N/A   Clear
10:55 AM 42.8 °F 37.5 °F 30.0 °F 61% 30.35 in 10.0 mi WSW 9.2 mph - N/A   Clear
11:15 AM 43.7 °F 39.1 °F 29.7 °F 58% 30.34 in 10.0 mi WSW 8.1 mph - N/A   Clear
11:35 AM 45.5 °F 39.9 °F 29.8 °F 54% 30.33 in 10.0 mi SW 11.5 mph - N/A   Clear
11:55 AM 46.2 °F 40.8 °F 29.7 °F 53% 30.32 in 10.0 mi WSW 11.5 mph 19.6 mph N/A   Clear
12:15 PM 47.5 °F - 29.1 °F 49% 30.30 in 10.0 mi WSW 15.0 mph 19.6 mph N/A   Clear
12:35 PM 49.1 °F - 28.9 °F 46% 30.29 in 10.0 mi SW 16.1 mph 20.7 mph N/A   Clear
12:55 PM 49.8 °F - 27.1 °F 41% 30.28 in 10.0 mi WSW 18.4 mph 25.3 mph N/A   Clear
1:15 PM 50.5 °F - 27.1 °F 40% 30.26 in 10.0 mi SW 17.3 mph 25.3 mph N/A   Clear
1:35 PM 51.3 °F - 27.1 °F 39% 30.24 in 10.0 mi SW 18.4 mph 23.0 mph N/A   Clear
1:55 PM 51.3 °F - 25.9 °F 37% 30.23 in 10.0 mi SW 19.6 mph 26.5 mph N/A   Clear
2:15 PM 52.0 °F - 25.7 °F 36% 30.21 in 10.0 mi SW 18.4 mph 24.2 mph N/A   Clear
2:35 PM 52.2 °F - 25.2 °F 35% 30.20 in 10.0 mi SW 21.9 mph 27.6 mph N/A   Clear
2:55 PM 52.2 °F - 25.3 °F 35% 30.19 in 10.0 mi SW 23.0 mph 28.8 mph N/A   Clear
3:15 PM 52.7 °F - 25.0 °F 34% 30.18 in 10.0 mi SW 20.7 mph 27.6 mph N/A   Clear
3:35 PM 52.0 °F - 25.2 °F 35% 30.17 in 10.0 mi SW 21.9 mph 27.6 mph N/A   Mostly Cloudy
3:55 PM 51.8 °F - 25.5 °F 36% 30.16 in 10.0 mi SW 21.9 mph 26.5 mph N/A   Overcast
4:15 PM 50.9 °F - 24.6 °F 36% 30.15 in 10.0 mi SW 18.4 mph 25.3 mph N/A   Overcast
4:35 PM 50.9 °F - 24.8 °F 36% 30.13 in 10.0 mi SSW 21.9 mph - N/A   Overcast
4:55 PM 50.5 °F - 24.6 °F 36% 30.12 in 10.0 mi SSW 19.6 mph - N/A   Overcast
5:15 PM 50.4 °F - 25.3 °F 38% 30.11 in 10.0 mi SW 16.1 mph 26.5 mph N/A   Overcast
5:35 PM 49.6 °F - 24.8 °F 38% 30.09 in 10.0 mi SSW 18.4 mph 23.0 mph N/A   Overcast
5:55 PM 48.6 °F - 25.0 °F 40% 30.08 in 10.0 mi SSW 15.0 mph - N/A   Mostly Cloudy
6:15 PM 47.7 °F - 24.8 °F 41% 30.07 in 10.0 mi SSW 16.1 mph - N/A   Scattered Clouds
6:35 PM 46.8 °F - 25.5 °F 43% 30.06 in 10.0 mi SSW 16.1 mph - N/A   Clear
6:55 PM 46.4 °F 39.8 °F 25.7 °F 44% 30.06 in 10.0 mi SSW 16.1 mph 21.9 mph N/A   Clear
7:15 PM 46.0 °F 39.3 °F 26.1 °F 46% 30.05 in 10.0 mi SSW 16.1 mph 21.9 mph N/A   Clear
7:35 PM 45.9 °F 39.4 °F 26.2 °F 46% 30.05 in 10.0 mi SSW 15.0 mph - N/A   Clear
7:55 PM 45.7 °F 38.8 °F 26.2 °F 47% 30.04 in 10.0 mi SSW 16.1 mph - N/A   Clear
8:15 PM 45.7 °F 38.0 °F 26.2 °F 47% 30.03 in 10.0 mi SSW 19.6 mph 23.0 mph N/A   Clear
8:35 PM 45.7 °F 38.0 °F 26.1 °F 46% 30.01 in 10.0 mi SSW 19.6 mph 23.0 mph N/A   Clear
8:55 PM 45.9 °F 38.0 °F 25.9 °F 46% 30.01 in 10.0 mi SSW 20.7 mph 26.5 mph N/A   Clear
9:15 PM 46.2 °F 38.3 °F 25.7 °F 45% 30.00 in 10.0 mi SSW 21.9 mph 27.6 mph N/A   Clear
9:35 PM 46.8 °F - 25.7 °F 44% 30.00 in 10.0 mi SSW 20.7 mph 32.2 mph N/A   Clear
9:55 PM 46.6 °F - 25.5 °F 44% 30.00 in 10.0 mi SSW 21.9 mph 28.8 mph N/A   Clear
10:15 PM 46.2 °F 38.3 °F 25.3 °F 44% 30.00 in 10.0 mi SW 21.9 mph 28.8 mph N/A   Clear
10:35 PM 45.5 °F 37.8 °F 25.3 °F 45% 30.01 in 10.0 mi SW 19.6 mph 26.5 mph N/A   Clear
10:55 PM 44.8 °F 36.6 °F 25.3 °F 47% 30.00 in 10.0 mi SW 20.7 mph 26.5 mph N/A   Clear
11:15 PM 44.1 °F 36.5 °F 25.5 °F 48% 29.99 in 10.0 mi SW 17.3 mph 23.0 mph N/A   Clear
11:35 PM 44.2 °F 37.0 °F 25.5 °F 48% 29.98 in 10.0 mi SW 16.1 mph 24.2 mph N/A   Clear
11:55 PM 43.7 °F 36.0 °F 25.7 °F 49% 29.97 in 10.0 mi SW 17.3 mph 24.2 mph N/A   Clear